Flag Weather past 2 weeks in Ciudad del Este, Paraguay

Now
90 °F

Scattered clouds.


Feels Like: 95 °F
Forecast: 68 / 88 °F
Wind: 2 mph from West

Location: Foz Do Iguacu Aeroporto

Current Time: Nov 27, 2014 at 1:06:07 PM

Latest Report: Nov 27, 2014 at 12:00 PM


Visibility: N/A

Pressure: 29.89 "Hg

Humidity: 52%

Dew point: 70 °F

Location of Ciudad del EsteLocation

Historic Weather in Ciudad del Este — Graph

°F

Ciudad del Este temperature yesterday

Maximum temperature yesterday: 88 °F (at 3:00 PM)
Minimum temperature yesterday: 36 °F (at 6:00 AM)
Average temperature yesterday: 76 °F

Past Weeks' High & Low Weather Summary

 TemperatureHumidityPressure
High90 °F (Nov 17, 5:00 PM)100% (Nov 12, 10:00 PM)30.09 "Hg (Nov 12, 10:00 PM)
Low34 °F (Nov 21, 10:00 PM)31% (Nov 18, 2:00 PM)29.65 "Hg (Nov 25, 5:00 PM)
Average74 °F76%29.87 "Hg
* Reported Nov 12 12:00 Noon — Nov 27 12:00 Noon, Ciudad del Este, Weather by CustomWeather, © 2014

Note: Actual official high and low records may vary slightly from our data, if they occured in-between our weather recording intervals... More about our weather records

Advertising

Ciudad del Este weather history for previous 24 hours

 ConditionsComfort  
Time TempWeatherWind HumidityBarometerVisibility
12:00 PM
Nov 27
90 °FScattered clouds.2 mph52%29.89 "HgN/A
11:00 AM88 °FPassing clouds.3 mph59%29.89 "HgN/A
10:00 AM86 °FSunny.2 mph66%29.89 "Hg10 mi
9:00 AM81 °FSunny.2 mph79%29.89 "Hg10 mi
8:00 AM75 °FSunny.3 mph89%29.89 "Hg10 mi
7:00 AM72 °FClear.3 mph94%29.86 "Hg5 mi
6:00 AM70 °FFog.2 mph100%N/A0 mi
5:10 AM70 °FFog.2 mph100%29.83 "Hg0 mi
5:00 AM70 °FFog.2 mph100%N/A0 mi
4:00 AM70 °FClear.2 mph100%29.80 "Hg10 mi
3:00 AM70 °FClear.No wind100%29.80 "Hg10 mi
2:00 AM72 °FClear.No wind94%29.80 "Hg10 mi
1:00 AM72 °FClear.No wind94%29.80 "Hg10 mi
12:00 AM72 °FClear.No wind94%29.80 "Hg10 mi
11:00 PM
Nov 26
73 °FClear.2 mph94%29.80 "Hg10 mi
10:00 PM73 °FClear.2 mph94%29.80 "Hg10 mi
9:00 PM75 °FClear.2 mph89%29.80 "Hg10 mi
8:00 PM77 °FClear.2 mph83%29.77 "Hg10 mi
7:00 PM81 °FSunny.5 mph79%29.74 "Hg10 mi
6:00 PM84 °FSunny.2 mph70%29.74 "Hg10 mi
5:00 PM84 °FSunny.8 mph62%29.74 "Hg10 mi
4:00 PM86 °FScattered clouds.6 mph59%29.74 "HgN/A
3:00 PM88 °FScattered clouds.5 mph59%29.77 "HgN/A
2:00 PM86 °FPartly sunny.5 mph66%29.77 "HgN/A
1:00 PM84 °FPartly sunny.2 mph66%29.80 "HgN/A
Weather by CustomWeather, © 2014

See weather overviewHow to use our weather pages